Regional Weather Roundup
Issued by NWS Lake Charles, LA

Home | Current Version | Previous Version | Text Only | Print | Product List | Glossary On
Versions: 1 2 3 4 5 6 7 8 9 10 11 12 13 14 15 16 17 18 19 20 21 22 23 24 25 26 27 28 29 30 31 32 33 34 35 36 37 38 39 40 41 42 43 44 45 46 47 48 49 50
000
ASUS44 KLCH 030010
RWRLCH
RWRLCH
REGIONAL WEATHER ROUNDUP
NATIONAL WEATHER SERVICE LAKE CHARLES LA
700 PM CDT TUE SEP 02 2014

Note: "fair" indicates few or no clouds below 12,000 feet with no
significant weather and/or obstructions to visibility.


ACROSS SOUTHEAST TEXAS

CITY           SKY/WX    TMP DP  RH WIND       PRES   REMARKS
BEAUMONT       PTCLDY    85  75  72 S8        29.98R
BEAUMONT CITY    N/A     84  74  73 S6        29.98R
ORANGE         PTCLDY    86  75  70 SE6       30.00R
JASPER         CLOUDY    79  76  90 CALM      30.01S
$$

ACROSS CENTRAL LOUISIANA

CITY           SKY/WX    TMP DP  RH WIND       PRES   REMARKS
LEESVILLE      TSTM      72  72 100 SE12      30.02F
FULLERTON      TSTM      75  72  90 CALM      30.00S
ALEXANDRIA INT CLOUDY    76  73  91 SE8       30.01R
ESLER FIELD    LGT RAIN  76  72  87 SE6       30.03R
DERIDDER         N/A     75  72  89 CALM      30.03F FOG
OAKDALE        TSTM      72  71  94 NE5       30.04S
OPELOUSAS        N/A     76  74  93 N7        30.03R
$$

ACROSS SOUTHWEST AND SOUTH CENTRAL LOUISIANA

CITY           SKY/WX    TMP DP  RH WIND       PRES   REMARKS
SULPHUR        MOCLDY    87  75  69 SE5       30.01R
LAKE CHARLES   MOCLDY    85  76  74 CALM      30.00R
CHENNAULT INT  PTCLDY    88  73  62 SW3       30.01
CAMERON PHI    CLEAR     86  77  74 SE8       30.00R
DEQUINCY       MOCLDY    83  79  88 CALM      30.00R
JENNINGS         N/A     85  74  70 CALM      30.00R
LAFAYETTE      CLOUDY    83  75  77 N9        30.01R
NEW IBERIA     MOCLDY    86  75  69 SW5       30.01R
ABBEVILLE        N/A     84  75  73 S5        30.01R
PATTERSON      PTCLDY    86  77  74 SW3       30.03R
SALT POINT       N/A     89  76  65 CALM      29.99S HX 100
$$

SELECTED SITES ACROSS THE REGION

CITY           SKY/WX    TMP DP  RH WIND       PRES   REMARKS
HOUSTON BUSH   PTCLDY    86  75  69 SE15      29.95S
HOUSTON HOBBY  PTCLDY    86  73  65 SE13      29.95R
GALVESTON      CLEAR     86  77  74 SE12      29.96S
COLLEGE STAT   PTCLDY    91  70  49 SE14      29.90F
CONROE         PTCLDY    88  73  61 SE17      29.94F
HUNTSVILLE     CLOUDY    84  76  76 E3        29.93F THUNDER
LUFKIN         CLOUDY    79  75  87 E6        29.95F
SHREVEPORT     CLOUDY    76  73  91 E3        29.94R
MONROE         CLOUDY    74  72  93 NE6       29.97F
NATCHEZ MS     CLOUDY    73  70  88 CALM      30.05F
BATON ROUGE    CLOUDY    76  74  93 NE3       30.01F
N.O. INTL ARPT MOCLDY    86  73  65 S8        29.99S
SLIDELL        PTCLDY    83  75  77 SE3       30.00R
$$

MARINE REPORTS

STATION/POSITION TIME  TEMP    WIND        PRES    VSBY  WAVE
                       AIR SEA DIR/SP/G                  HT/PER
                 (UTC) (F)     (DEG/KT/KT) (MB)    (MI)  (FT/S)
BUOY 30 S HIGH I 0000   85 85  130/ 12/ 14 1014.3R         4/ 8
SEA RIM ST PARK  0000   85     130/  8/  9 1015.9R
PORT ARTHUR      0000      86  140/  6/ 10 1015.7R
SABINE PASS N    0000   85 86  150/ 10/ 12 1015.7R
TEXAS POINT      0000   84 86  120/ 10/ 12 1015.9R
CALCASIEU PASS   0000   85 86  170/  8/  9 1016.9R
LK CHARLES BEACH 0000   87 83              1016.8R
MARSH ISLAND     NOT AVBL
FRESH WATER LOCK 0000   86 87  120/  5/  6 1015.7S
AMERADA PASS     0000   86 88  170/  1/  3 1015.8R
$$



USA.gov is the U.S. government's official web portal to all federal, state and local government web resources and services.